Time,TemperatureF,DewpointF,PressureIn,WindDirection,WindDirectionDegrees,WindSpeedMPH,WindSpeedGustMPH,Humidity,HourlyPrecipIn,Conditions,Clouds,dailyrainin,SoftwareType,DateUTC
2013-04-26 06:31:00,49.8,45.1,30.02,NNE,23,0.0,0.0,84,0.00,,,0.00,WUHU216HW,2013-04-26 04:31:00,
2013-04-26 06:35:00,50.1,45.4,30.03,East,90,0.0,0.0,84,0.00,,,0.00,WUHU216HW,2013-04-26 04:35:00,
2013-04-26 06:41:00,50.3,45.6,30.02,East,90,0.0,0.0,84,0.00,,,0.00,WUHU216HW,2013-04-26 04:41:00,
2013-04-26 06:46:00,50.7,46.0,30.03,NE,45,0.0,0.0,84,0.00,,,0.00,WUHU216HW,2013-04-26 04:46:00,
2013-04-26 06:51:00,51.2,46.2,30.04,ENE,68,0.0,0.0,83,0.00,,,0.00,WUHU216HW,2013-04-26 04:51:00,
2013-04-26 06:56:00,51.6,46.5,30.03,NE,45,0.0,0.0,83,0.00,,,0.00,WUHU216HW,2013-04-26 04:56:00,
2013-04-26 09:52:00,68.9,54.9,30.00,East,90,1.7,1.7,61,0.00,,,0.00,WUHU216HW,2013-04-26 07:52:00,
2013-04-26 10:02:00,70.1,55.2,30.00,NNE,23,0.0,2.4,59,0.00,,,0.00,WUHU216HW,2013-04-26 08:02:00,
2013-04-26 10:07:00,70.7,55.7,30.00,ENE,68,0.0,2.4,59,0.00,,,0.00,WUHU216HW,2013-04-26 08:07:00,
2013-04-26 10:12:00,71.6,56.1,30.00,NNE,23,0.0,1.7,58,0.00,,,0.00,WUHU216HW,2013-04-26 08:12:00,
2013-04-26 10:17:00,71.9,56.8,30.01,ENE,68,1.1,1.7,59,0.00,,,0.00,WUHU216HW,2013-04-26 08:17:00,
2013-04-26 10:22:00,72.6,56.9,30.01,North,0,0.0,1.5,58,0.00,,,0.00,WUHU216HW,2013-04-26 08:22:00,
2013-04-26 10:27:00,73.5,57.3,30.01,ENE,68,1.3,3.3,57,0.00,,,0.00,WUHU216HW,2013-04-26 08:27:00,
2013-04-26 10:32:00,73.9,57.1,30.01,SSE,158,0.0,3.5,56,0.00,,,0.00,WUHU216HW,2013-04-26 08:32:00,
2013-04-26 10:37:00,74.3,57.7,30.01,East,90,2.2,3.5,56,0.00,,,0.00,WUHU216HW,2013-04-26 08:37:00,
2013-04-26 10:42:00,75.0,57.2,30.01,East,90,0.8,4.4,54,0.00,,,0.00,WUHU216HW,2013-04-26 08:42:00,
2013-04-26 10:48:00,75.7,57.3,30.01,SSE,158,3.1,4.4,53,0.00,,,0.00,WUHU216HW,2013-04-26 08:48:00,
2013-04-26 11:03:00,77.0,55.7,30.01,East,90,0.0,0.0,48,0.00,,,0.00,WUHU216HW,2013-04-26 09:03:00,
2013-04-26 11:45:00,80.2,55.6,29.98,SE,135,0.0,0.0,43,0.00,,,0.00,WUHU216HW,2013-04-26 09:45:00,
2013-04-26 11:50:00,80.4,55.8,29.99,SSE,158,2.4,9.8,43,0.00,,,0.00,WUHU216HW,2013-04-26 09:50:00,
2013-04-26 11:55:00,80.4,55.8,29.98,SSE,158,3.5,9.8,43,0.00,,,0.00,WUHU216HW,2013-04-26 09:55:00,
2013-04-26 15:03:00,83.8,51.5,29.88,SW,225,10.9,10.9,33,0.00,,,0.00,WUHU216HW,2013-04-26 13:03:00,
2013-04-26 15:08:00,82.2,50.8,29.89,East,90,3.3,10.9,34,0.00,,,0.00,WUHU216HW,2013-04-26 13:08:00,
2013-04-26 15:13:00,82.5,51.9,29.89,ESE,113,0.0,7.3,35,0.00,,,0.00,WUHU216HW,2013-04-26 13:13:00,
2013-04-26 15:18:00,82.0,51.4,29.89,SSE,158,4.4,8.0,35,0.00,,,0.00,WUHU216HW,2013-04-26 13:18:00,
2013-04-26 18:18:00,79.5,46.2,29.83,SSE,158,2.9,2.9,31,0.00,,,0.00,WUHU216HW,2013-04-26 16:18:00,
2013-04-26 18:23:00,78.4,45.2,29.83,SSE,158,3.8,5.1,31,0.00,,,0.00,WUHU216HW,2013-04-26 16:23:00,
2013-04-26 20:35:00,66.7,45.2,29.78,WSW,248,0.8,0.8,46,0.00,,,0.00,WUHU216HW,2013-04-26 18:35:00,
2013-04-26 20:45:00,67.1,44.9,29.80,SSW,203,0.8,1.5,45,0.00,,,0.00,WUHU216HW,2013-04-26 18:45:00,
2013-04-26 20:50:00,66.7,45.2,29.81,SSW,203,0.8,2.0,46,0.00,,,0.00,WUHU216HW,2013-04-26 18:50:00,
2013-04-26 21:26:00,65.8,45.5,29.82,WNW,293,0.0,0.0,48,0.00,,,0.00,WUHU216HW,2013-04-26 19:26:00,
2013-04-26 21:31:00,65.4,45.8,29.83,WNW,293,1.7,1.7,49,0.00,,,0.00,WUHU216HW,2013-04-26 19:31:00,